owner,sensor,date,latitude,longitude,air_temperature,qcFlag 
COMPS,ioos:station:USF.COMPS:C13:1,2014-03-01T00:05:00Z,26.0630,-83.0730,16.26,1111122 
COMPS,ioos:station:USF.COMPS:C13:1,2014-03-01T00:35:00Z,26.0630,-83.0730,16.3,1111122 
COMPS,ioos:station:USF.COMPS:C13:1,2014-03-01T01:05:00Z,26.0630,-83.0730,16.3,1111122 
COMPS,ioos:station:USF.COMPS:C13:1,2014-03-01T01:35:00Z,26.0630,-83.0730,16.46,1111122 
COMPS,ioos:station:USF.COMPS:C13:1,2014-03-01T02:05:00Z,26.0630,-83.0730,16.5,1111122 
COMPS,ioos:station:USF.COMPS:C13:1,2014-03-01T02:35:00Z,26.0630,-83.0730,16.54,1111122 
COMPS,ioos:station:USF.COMPS:C13:1,2014-03-01T03:05:00Z,26.0630,-83.0730,16.6,1111122 
COMPS,ioos:station:USF.COMPS:C13:1,2014-03-01T03:35:00Z,26.0630,-83.0730,16.58,1111122 
COMPS,ioos:station:USF.COMPS:C13:1,2014-03-01T04:05:00Z,26.0630,-83.0730,16.76,1111122 
COMPS,ioos:station:USF.COMPS:C13:1,2014-03-01T04:35:00Z,26.0630,-83.0730,16.96,1111122 
COMPS,ioos:station:USF.COMPS:C13:1,2014-03-01T05:05:00Z,26.0630,-83.0730,17.02,1111122 
COMPS,ioos:station:USF.COMPS:C13:1,2014-03-01T05:35:00Z,26.0630,-83.0730,17.03,1111122 
COMPS,ioos:station:USF.COMPS:C13:1,2014-03-01T06:05:00Z,26.0630,-83.0730,17.23,1111122 
COMPS,ioos:station:USF.COMPS:C13:1,2014-03-01T06:35:00Z,26.0630,-83.0730,17.33,1111122 
COMPS,ioos:station:USF.COMPS:C13:1,2014-03-01T07:05:00Z,26.0630,-83.0730,17.37,1111122 
COMPS,ioos:station:USF.COMPS:C13:1,2014-03-01T07:35:00Z,26.0630,-83.0730,17.54,1111122 
COMPS,ioos:station:USF.COMPS:C13:1,2014-03-01T08:05:00Z,26.0630,-83.0730,17.64,1111122 
COMPS,ioos:station:USF.COMPS:C13:1,2014-03-01T08:35:00Z,26.0630,-83.0730,17.63,1111122 
COMPS,ioos:station:USF.COMPS:C13:1,2014-03-01T09:05:00Z,26.0630,-83.0730,17.69,1111122 
COMPS,ioos:station:USF.COMPS:C13:1,2014-03-01T09:35:00Z,26.0630,-83.0730,17.68,1111122 
COMPS,ioos:station:USF.COMPS:C13:1,2014-03-01T10:05:00Z,26.0630,-83.0730,17.76,1111122 
COMPS,ioos:station:USF.COMPS:C13:1,2014-03-01T10:35:00Z,26.0630,-83.0730,17.86,1111122 
COMPS,ioos:station:USF.COMPS:C13:1,2014-03-01T11:05:00Z,26.0630,-83.0730,17.92,1111122 
COMPS,ioos:station:USF.COMPS:C13:1,2014-03-01T11:35:00Z,26.0630,-83.0730,18.03,1111122 
COMPS,ioos:station:USF.COMPS:C13:1,2014-03-01T12:05:00Z,26.0630,-83.0730,17.94,1111122 
COMPS,ioos:station:USF.COMPS:C13:1,2014-03-01T12:35:00Z,26.0630,-83.0730,18.25,1111122 
COMPS,ioos:station:USF.COMPS:C13:1,2014-03-01T13:05:00Z,26.0630,-83.0730,18.8,1111122 
COMPS,ioos:station:USF.COMPS:C13:1,2014-03-01T13:35:00Z,26.0630,-83.0730,18.99,1111122 
COMPS,ioos:station:USF.COMPS:C13:1,2014-03-01T14:05:00Z,26.0630,-83.0730,19.42,1111122 
COMPS,ioos:station:USF.COMPS:C13:1,2014-03-01T14:35:00Z,26.0630,-83.0730,19.22,1111122 
COMPS,ioos:station:USF.COMPS:C13:1,2014-03-01T15:05:00Z,26.0630,-83.0730,19.17,1111122 
COMPS,ioos:station:USF.COMPS:C13:1,2014-03-01T15:35:00Z,26.0630,-83.0730,19.43,1111122 
COMPS,ioos:station:USF.COMPS:C13:1,2014-03-01T16:05:00Z,26.0630,-83.0730,19.72,1111122 
COMPS,ioos:station:USF.COMPS:C13:1,2014-03-01T16:35:00Z,26.0630,-83.0730,19.48,1111122 
COMPS,ioos:station:USF.COMPS:C13:1,2014-03-01T17:05:00Z,26.0630,-83.0730,19.23,1111122 
COMPS,ioos:station:USF.COMPS:C13:1,2014-03-01T17:35:00Z,26.0630,-83.0730,19.01,1111122 
COMPS,ioos:station:USF.COMPS:C13:1,2014-03-01T18:05:00Z,26.0630,-83.0730,18.9,1111122 
COMPS,ioos:station:USF.COMPS:C13:1,2014-03-01T18:35:00Z,26.0630,-83.0730,18.84,1111122 
COMPS,ioos:station:USF.COMPS:C13:1,2014-03-01T19:05:00Z,26.0630,-83.0730,18.62,1111122 
COMPS,ioos:station:USF.COMPS:C13:1,2014-03-01T19:35:00Z,26.0630,-83.0730,18.5,1111122 
COMPS,ioos:station:USF.COMPS:C13:1,2014-03-01T20:05:00Z,26.0630,-83.0730,18.65,1111122 
COMPS,ioos:station:USF.COMPS:C13:1,2014-03-01T20:35:00Z,26.0630,-83.0730,18.74,1111122 
COMPS,ioos:station:USF.COMPS:C13:1,2014-03-01T21:05:00Z,26.0630,-83.0730,18.84,1111122 
COMPS,ioos:station:USF.COMPS:C13:1,2014-03-01T21:35:00Z,26.0630,-83.0730,18.92,1111122 
COMPS,ioos:station:USF.COMPS:C13:1,2014-03-01T22:05:00Z,26.0630,-83.0730,19.25,1111122 
COMPS,ioos:station:USF.COMPS:C13:1,2014-03-01T22:35:00Z,26.0630,-83.0730,19.47,1111122 
COMPS,ioos:station:USF.COMPS:C13:1,2014-03-01T23:05:00Z,26.0630,-83.0730,19.74,1111122 
COMPS,ioos:station:USF.COMPS:C13:1,2014-03-01T23:35:00Z,26.0630,-83.0730,19.68,1111122 
COMPS,ioos:station:USF.COMPS:C13:1,2014-03-02T00:05:00Z,26.0630,-83.0730,19.7,1111122 
COMPS,ioos:station:USF.COMPS:C13:1,2014-03-02T00:35:00Z,26.0630,-83.0730,19.78,1111122 
COMPS,ioos:station:USF.COMPS:C13:1,2014-03-02T01:05:00Z,26.0630,-83.0730,19.91,1111122 
COMPS,ioos:station:USF.COMPS:C13:1,2014-03-02T01:35:00Z,26.0630,-83.0730,19.9,1111122 
COMPS,ioos:station:USF.COMPS:C13:1,2014-03-02T02:05:00Z,26.0630,-83.0730,19.91,1111122 
COMPS,ioos:station:USF.COMPS:C13:1,2014-03-02T02:35:00Z,26.0630,-83.0730,19.88,1111122 
COMPS,ioos:station:USF.COMPS:C13:1,2014-03-02T03:05:00Z,26.0630,-83.0730,20.01,1111122 
COMPS,ioos:station:USF.COMPS:C13:1,2014-03-02T03:35:00Z,26.0630,-83.0730,20.07,1111122 
COMPS,ioos:station:USF.COMPS:C13:1,2014-03-02T04:05:00Z,26.0630,-83.0730,19.95,1111122 
COMPS,ioos:station:USF.COMPS:C13:1,2014-03-02T04:35:00Z,26.0630,-83.0730,19.82,1111122 
COMPS,ioos:station:USF.COMPS:C13:1,2014-03-02T05:05:00Z,26.0630,-83.0730,19.78,1111122 
COMPS,ioos:station:USF.COMPS:C13:1,2014-03-02T05:35:00Z,26.0630,-83.0730,19.78,1111122 
COMPS,ioos:station:USF.COMPS:C13:1,2014-03-02T06:05:00Z,26.0630,-83.0730,19.83,1111122 
COMPS,ioos:station:USF.COMPS:C13:1,2014-03-02T06:35:00Z,26.0630,-83.0730,19.84,1111122 
COMPS,ioos:station:USF.COMPS:C13:1,2014-03-02T07:05:00Z,26.0630,-83.0730,19.79,1111122 
COMPS,ioos:station:USF.COMPS:C13:1,2014-03-02T07:35:00Z,26.0630,-83.0730,19.73,1111122 
COMPS,ioos:station:USF.COMPS:C13:1,2014-03-02T08:05:00Z,26.0630,-83.0730,19.86,1111122 
COMPS,ioos:station:USF.COMPS:C13:1,2014-03-02T08:35:00Z,26.0630,-83.0730,19.85,1111122 
COMPS,ioos:station:USF.COMPS:C13:1,2014-03-02T09:05:00Z,26.0630,-83.0730,19.61,1111122 
COMPS,ioos:station:USF.COMPS:C13:1,2014-03-02T09:35:00Z,26.0630,-83.0730,19.32,1111122 
COMPS,ioos:station:USF.COMPS:C13:1,2014-03-02T10:05:00Z,26.0630,-83.0730,19.14,1111122 
COMPS,ioos:station:USF.COMPS:C13:1,2014-03-02T10:35:00Z,26.0630,-83.0730,18.95,1111122 
COMPS,ioos:station:USF.COMPS:C13:1,2014-03-02T11:05:00Z,26.0630,-83.0730,18.82,1111122 
COMPS,ioos:station:USF.COMPS:C13:1,2014-03-02T11:35:00Z,26.0630,-83.0730,18.86,1111122 
COMPS,ioos:station:USF.COMPS:C13:1,2014-03-02T12:05:00Z,26.0630,-83.0730,18.9,1111122 
COMPS,ioos:station:USF.COMPS:C13:1,2014-03-02T12:35:00Z,26.0630,-83.0730,19.17,1111122 
COMPS,ioos:station:USF.COMPS:C13:1,2014-03-02T13:05:00Z,26.0630,-83.0730,19.36,1111122 
COMPS,ioos:station:USF.COMPS:C13:1,2014-03-02T13:35:00Z,26.0630,-83.0730,19.17,1111122 
COMPS,ioos:station:USF.COMPS:C13:1,2014-03-02T14:05:00Z,26.0630,-83.0730,19.16,1111122 
COMPS,ioos:station:USF.COMPS:C13:1,2014-03-02T14:35:00Z,26.0630,-83.0730,19.03,1111122 
COMPS,ioos:station:USF.COMPS:C13:1,2014-03-02T15:05:00Z,26.0630,-83.0730,18.99,1111122 
COMPS,ioos:station:USF.COMPS:C13:1,2014-03-02T15:35:00Z,26.0630,-83.0730,18.84,1111122 
COMPS,ioos:station:USF.COMPS:C13:1,2014-03-02T16:05:00Z,26.0630,-83.0730,18.69,1111122 
COMPS,ioos:station:USF.COMPS:C13:1,2014-03-02T16:35:00Z,26.0630,-83.0730,18.64,1111122 
COMPS,ioos:station:USF.COMPS:C13:1,2014-03-02T17:05:00Z,26.0630,-83.0730,18.74,1111122 
COMPS,ioos:station:USF.COMPS:C13:1,2014-03-02T17:35:00Z,26.0630,-83.0730,18.82,1111122 
COMPS,ioos:station:USF.COMPS:C13:1,2014-03-02T18:05:00Z,26.0630,-83.0730,18.97,1111122 
COMPS,ioos:station:USF.COMPS:C13:1,2014-03-02T18:35:00Z,26.0630,-83.0730,19.21,1111122 
COMPS,ioos:station:USF.COMPS:C13:1,2014-03-02T19:05:00Z,26.0630,-83.0730,19.42,1111122 
COMPS,ioos:station:USF.COMPS:C13:1,2014-03-02T19:35:00Z,26.0630,-83.0730,19.53,1111122 
COMPS,ioos:station:USF.COMPS:C13:1,2014-03-02T20:05:00Z,26.0630,-83.0730,19.75,1111122 
COMPS,ioos:station:USF.COMPS:C13:1,2014-03-02T20:35:00Z,26.0630,-83.0730,19.97,1111122 
COMPS,ioos:station:USF.COMPS:C13:1,2014-03-02T21:05:00Z,26.0630,-83.0730,20.23,1111122 
COMPS,ioos:station:USF.COMPS:C13:1,2014-03-02T21:35:00Z,26.0630,-83.0730,20.42,1111122 
COMPS,ioos:station:USF.COMPS:C13:1,2014-03-02T22:05:00Z,26.0630,-83.0730,20.64,1111122 
COMPS,ioos:station:USF.COMPS:C13:1,2014-03-02T22:35:00Z,26.0630,-83.0730,20.76,1111122 
COMPS,ioos:station:USF.COMPS:C13:1,2014-03-02T23:05:00Z,26.0630,-83.0730,20.66,1111122 
COMPS,ioos:station:USF.COMPS:C13:1,2014-03-02T23:35:00Z,26.0630,-83.0730,20.38,1111122 
COMPS,ioos:station:USF.COMPS:C13:1,2014-03-03T00:05:00Z,26.0630,-83.0730,20.33,1111122 
COMPS,ioos:station:USF.COMPS:C13:1,2014-03-03T00:35:00Z,26.0630,-83.0730,20.33,1111122 
COMPS,ioos:station:USF.COMPS:C13:1,2014-03-03T01:05:00Z,26.0630,-83.0730,20.29,1111122 
COMPS,ioos:station:USF.COMPS:C13:1,2014-03-03T01:35:00Z,26.0630,-83.0730,20.36,1111122 
COMPS,ioos:station:USF.COMPS:C13:1,2014-03-03T02:05:00Z,26.0630,-83.0730,20.28,1111122 
COMPS,ioos:station:USF.COMPS:C13:1,2014-03-03T02:35:00Z,26.0630,-83.0730,20.32,1111122 
COMPS,ioos:station:USF.COMPS:C13:1,2014-03-03T03:05:00Z,26.0630,-83.0730,20.32,1111122 
COMPS,ioos:station:USF.COMPS:C13:1,2014-03-03T03:35:00Z,26.0630,-83.0730,20.31,1111122 
COMPS,ioos:station:USF.COMPS:C13:1,2014-03-03T04:05:00Z,26.0630,-83.0730,20.32,1111122 
COMPS,ioos:station:USF.COMPS:C13:1,2014-03-03T04:35:00Z,26.0630,-83.0730,20.28,1111122 
COMPS,ioos:station:USF.COMPS:C13:1,2014-03-03T05:05:00Z,26.0630,-83.0730,20.11,1111122 
COMPS,ioos:station:USF.COMPS:C13:1,2014-03-03T05:35:00Z,26.0630,-83.0730,20.03,1111122 
COMPS,ioos:station:USF.COMPS:C13:1,2014-03-03T06:05:00Z,26.0630,-83.0730,19.96,1111122 
COMPS,ioos:station:USF.COMPS:C13:1,2014-03-03T06:35:00Z,26.0630,-83.0730,19.98,1111122 
COMPS,ioos:station:USF.COMPS:C13:1,2014-03-03T10:05:00Z,26.0630,-83.0730,20.48,1111122 
COMPS,ioos:station:USF.COMPS:C13:1,2014-03-03T10:35:00Z,26.0630,-83.0730,20.59,1111122 
COMPS,ioos:station:USF.COMPS:C13:1,2014-03-03T11:05:00Z,26.0630,-83.0730,20.53,1111122 
COMPS,ioos:station:USF.COMPS:C13:1,2014-03-03T11:35:00Z,26.0630,-83.0730,20.46,1111122 
COMPS,ioos:station:USF.COMPS:C13:1,2014-03-03T12:05:00Z,26.0630,-83.0730,20.49,1111122 
COMPS,ioos:station:USF.COMPS:C13:1,2014-03-03T12:35:00Z,26.0630,-83.0730,20.77,1111122 
COMPS,ioos:station:USF.COMPS:C13:1,2014-03-03T13:05:00Z,26.0630,-83.0730,21.49,1111122 
COMPS,ioos:station:USF.COMPS:C13:1,2014-03-03T13:35:00Z,26.0630,-83.0730,21.96,1111122 
COMPS,ioos:station:USF.COMPS:C13:1,2014-03-03T14:05:00Z,26.0630,-83.0730,21.35,1111122 
COMPS,ioos:station:USF.COMPS:C13:1,2014-03-03T14:35:00Z,26.0630,-83.0730,21.18,1111122 
COMPS,ioos:station:USF.COMPS:C13:1,2014-03-03T15:05:00Z,26.0630,-83.0730,21.07,1111122 
COMPS,ioos:station:USF.COMPS:C13:1,2014-03-03T15:35:00Z,26.0630,-83.0730,21.13,1111122 
COMPS,ioos:station:USF.COMPS:C13:1,2014-03-03T16:05:00Z,26.0630,-83.0730,21.01,1111122 
COMPS,ioos:station:USF.COMPS:C13:1,2014-03-03T16:35:00Z,26.0630,-83.0730,21.26,1111122 
COMPS,ioos:station:USF.COMPS:C13:1,2014-03-03T17:05:00Z,26.0630,-83.0730,20.76,1111122 
COMPS,ioos:station:USF.COMPS:C13:1,2014-03-03T17:35:00Z,26.0630,-83.0730,20.47,1111122 
COMPS,ioos:station:USF.COMPS:C13:1,2014-03-03T18:05:00Z,26.0630,-83.0730,20.49,1111122 
COMPS,ioos:station:USF.COMPS:C13:1,2014-03-03T18:35:00Z,26.0630,-83.0730,20.55,1111122 
COMPS,ioos:station:USF.COMPS:C13:1,2014-03-03T19:05:00Z,26.0630,-83.0730,20.7,1111122 
COMPS,ioos:station:USF.COMPS:C13:1,2014-03-03T19:35:00Z,26.0630,-83.0730,20.78,1111122 
COMPS,ioos:station:USF.COMPS:C13:1,2014-03-03T20:05:00Z,26.0630,-83.0730,20.77,1111122 
COMPS,ioos:station:USF.COMPS:C13:1,2014-03-03T20:35:00Z,26.0630,-83.0730,20.82,1111122 
COMPS,ioos:station:USF.COMPS:C13:1,2014-03-03T21:05:00Z,26.0630,-83.0730,20.79,1111122 
COMPS,ioos:station:USF.COMPS:C13:1,2014-03-03T21:35:00Z,26.0630,-83.0730,20.96,1111122 
COMPS,ioos:station:USF.COMPS:C13:1,2014-03-03T22:05:00Z,26.0630,-83.0730,21.43,1111122 
COMPS,ioos:station:USF.COMPS:C13:1,2014-03-03T22:35:00Z,26.0630,-83.0730,21.54,1111122 
COMPS,ioos:station:USF.COMPS:C13:1,2014-03-03T23:05:00Z,26.0630,-83.0730,21.52,1111122 
COMPS,ioos:station:USF.COMPS:C13:1,2014-03-03T23:35:00Z,26.0630,-83.0730,21.3,1111122 
COMPS,ioos:station:USF.COMPS:C13:1,2014-03-04T00:05:00Z,26.0630,-83.0730,21.12,1111122 
COMPS,ioos:station:USF.COMPS:C13:1,2014-03-04T00:35:00Z,26.0630,-83.0730,21.06,1111122 
COMPS,ioos:station:USF.COMPS:C13:1,2014-03-04T01:05:00Z,26.0630,-83.0730,20.93,1111122 
COMPS,ioos:station:USF.COMPS:C13:1,2014-03-04T01:35:00Z,26.0630,-83.0730,20.91,1111122 
COMPS,ioos:station:USF.COMPS:C13:1,2014-03-04T02:05:00Z,26.0630,-83.0730,20.76,1111122 
COMPS,ioos:station:USF.COMPS:C13:1,2014-03-04T02:35:00Z,26.0630,-83.0730,20.69,1111122 
COMPS,ioos:station:USF.COMPS:C13:1,2014-03-04T03:05:00Z,26.0630,-83.0730,20.71,1111122 
COMPS,ioos:station:USF.COMPS:C13:1,2014-03-04T03:35:00Z,26.0630,-83.0730,20.61,1111122 
COMPS,ioos:station:USF.COMPS:C13:1,2014-03-04T04:05:00Z,26.0630,-83.0730,20.58,1111122 
COMPS,ioos:station:USF.COMPS:C13:1,2014-03-04T04:35:00Z,26.0630,-83.0730,20.57,1111122 
COMPS,ioos:station:USF.COMPS:C13:1,2014-03-04T05:05:00Z,26.0630,-83.0730,20.52,1111122 
COMPS,ioos:station:USF.COMPS:C13:1,2014-03-04T05:35:00Z,26.0630,-83.0730,20.4,1111122 
COMPS,ioos:station:USF.COMPS:C13:1,2014-03-04T06:05:00Z,26.0630,-83.0730,20.37,1111122 
COMPS,ioos:station:USF.COMPS:C13:1,2014-03-04T06:35:00Z,26.0630,-83.0730,20.38,1111122 
COMPS,ioos:station:USF.COMPS:C13:1,2014-03-04T07:05:00Z,26.0630,-83.0730,20.5,1111122 
COMPS,ioos:station:USF.COMPS:C13:1,2014-03-04T07:35:00Z,26.0630,-83.0730,20.5,1111122 
COMPS,ioos:station:USF.COMPS:C13:1,2014-03-04T08:05:00Z,26.0630,-83.0730,20.44,1111122 
COMPS,ioos:station:USF.COMPS:C13:1,2014-03-04T08:35:00Z,26.0630,-83.0730,20.4,1111122 
COMPS,ioos:station:USF.COMPS:C13:1,2014-03-04T09:05:00Z,26.0630,-83.0730,20.4,1111122 
COMPS,ioos:station:USF.COMPS:C13:1,2014-03-04T09:35:00Z,26.0630,-83.0730,20.49,1111122 
COMPS,ioos:station:USF.COMPS:C13:1,2014-03-04T10:05:00Z,26.0630,-83.0730,20.53,1111122 
COMPS,ioos:station:USF.COMPS:C13:1,2014-03-04T10:35:00Z,26.0630,-83.0730,20.61,1111122 
COMPS,ioos:station:USF.COMPS:C13:1,2014-03-04T11:05:00Z,26.0630,-83.0730,20.6,1111122 
COMPS,ioos:station:USF.COMPS:C13:1,2014-03-04T11:35:00Z,26.0630,-83.0730,20.55,1111122 
COMPS,ioos:station:USF.COMPS:C13:1,2014-03-04T12:05:00Z,26.0630,-83.0730,20.59,1111122 
COMPS,ioos:station:USF.COMPS:C13:1,2014-03-04T12:35:00Z,26.0630,-83.0730,21.88,1111122 
COMPS,ioos:station:USF.COMPS:C13:1,2014-03-04T13:05:00Z,26.0630,-83.0730,21.2,1111122 
COMPS,ioos:station:USF.COMPS:C13:1,2014-03-04T13:35:00Z,26.0630,-83.0730,21.11,1111122 
COMPS,ioos:station:USF.COMPS:C13:1,2014-03-04T14:05:00Z,26.0630,-83.0730,21.1,1111122 
COMPS,ioos:station:USF.COMPS:C13:1,2014-03-04T14:35:00Z,26.0630,-83.0730,20.51,1111122 
COMPS,ioos:station:USF.COMPS:C13:1,2014-03-04T15:05:00Z,26.0630,-83.0730,20.36,1111122 
COMPS,ioos:station:USF.COMPS:C13:1,2014-03-04T15:35:00Z,26.0630,-83.0730,20.46,1111122 
COMPS,ioos:station:USF.COMPS:C13:1,2014-03-04T16:05:00Z,26.0630,-83.0730,20.49,1111122 
COMPS,ioos:station:USF.COMPS:C13:1,2014-03-04T16:35:00Z,26.0630,-83.0730,20.66,1111122 
COMPS,ioos:station:USF.COMPS:C13:1,2014-03-04T17:05:00Z,26.0630,-83.0730,20.8,1111122 
COMPS,ioos:station:USF.COMPS:C13:1,2014-03-04T17:35:00Z,26.0630,-83.0730,20.85,1111122 
COMPS,ioos:station:USF.COMPS:C13:1,2014-03-04T18:05:00Z,26.0630,-83.0730,20.86,1111122 
COMPS,ioos:station:USF.COMPS:C13:1,2014-03-04T18:35:00Z,26.0630,-83.0730,20.91,1111122 
COMPS,ioos:station:USF.COMPS:C13:1,2014-03-04T19:05:00Z,26.0630,-83.0730,20.86,1111122 
COMPS,ioos:station:USF.COMPS:C13:1,2014-03-04T19:35:00Z,26.0630,-83.0730,20.92,1111122 
COMPS,ioos:station:USF.COMPS:C13:1,2014-03-04T20:05:00Z,26.0630,-83.0730,20.96,1111122 
COMPS,ioos:station:USF.COMPS:C13:1,2014-03-04T20:35:00Z,26.0630,-83.0730,20.98,1111122 
COMPS,ioos:station:USF.COMPS:C13:1,2014-03-04T21:05:00Z,26.0630,-83.0730,21.07,1111122 
COMPS,ioos:station:USF.COMPS:C13:1,2014-03-04T21:35:00Z,26.0630,-83.0730,21.09,1111122 
COMPS,ioos:station:USF.COMPS:C13:1,2014-03-04T22:05:00Z,26.0630,-83.0730,21.19,1111122 
COMPS,ioos:station:USF.COMPS:C13:1,2014-03-04T22:35:00Z,26.0630,-83.0730,21.33,1111122 
COMPS,ioos:station:USF.COMPS:C13:1,2014-03-04T23:05:00Z,26.0630,-83.0730,21.2,1111122 
COMPS,ioos:station:USF.COMPS:C13:1,2014-03-04T23:35:00Z,26.0630,-83.0730,20.8,1111122 
COMPS,ioos:station:USF.COMPS:C13:1,2014-03-05T00:05:00Z,26.0630,-83.0730,20.7,1111122 
COMPS,ioos:station:USF.COMPS:C13:1,2014-03-05T00:35:00Z,26.0630,-83.0730,20.75,1111122 
COMPS,ioos:station:USF.COMPS:C13:1,2014-03-05T15:05:00Z,26.0630,-83.0730,19.6,1111122 
COMPS,ioos:station:USF.COMPS:C13:1,2014-03-05T15:35:00Z,26.0630,-83.0730,19.56,1111122 
COMPS,ioos:station:USF.COMPS:C13:1,2014-03-05T16:05:00Z,26.0630,-83.0730,19.7,1111122 
COMPS,ioos:station:USF.COMPS:C13:1,2014-03-05T16:35:00Z,26.0630,-83.0730,19.72,1111122 
COMPS,ioos:station:USF.COMPS:C13:1,2014-03-05T17:05:00Z,26.0630,-83.0730,19.76,1111122 
COMPS,ioos:station:USF.COMPS:C13:1,2014-03-05T17:35:00Z,26.0630,-83.0730,19.74,1111122 
COMPS,ioos:station:USF.COMPS:C13:1,2014-03-05T18:05:00Z,26.0630,-83.0730,19.81,1111122 
COMPS,ioos:station:USF.COMPS:C13:1,2014-03-05T18:35:00Z,26.0630,-83.0730,19.92,1111122 
COMPS,ioos:station:USF.COMPS:C13:1,2014-03-05T19:05:00Z,26.0630,-83.0730,20.1,1111122 
COMPS,ioos:station:USF.COMPS:C13:1,2014-03-05T19:35:00Z,26.0630,-83.0730,21.14,1111122 
COMPS,ioos:station:USF.COMPS:C13:1,2014-03-05T20:05:00Z,26.0630,-83.0730,21.24,1111122 
COMPS,ioos:station:USF.COMPS:C13:1,2014-03-05T20:35:00Z,26.0630,-83.0730,20.61,1111122 
COMPS,ioos:station:USF.COMPS:C13:1,2014-03-05T21:05:00Z,26.0630,-83.0730,20.58,1111122 
COMPS,ioos:station:USF.COMPS:C13:1,2014-03-05T21:35:00Z,26.0630,-83.0730,20.87,1111122 
COMPS,ioos:station:USF.COMPS:C13:1,2014-03-05T22:05:00Z,26.0630,-83.0730,20.74,1111122 
COMPS,ioos:station:USF.COMPS:C13:1,2014-03-05T22:35:00Z,26.0630,-83.0730,20.73,1111122 
COMPS,ioos:station:USF.COMPS:C13:1,2014-03-05T23:05:00Z,26.0630,-83.0730,20.57,1111122 
COMPS,ioos:station:USF.COMPS:C13:1,2014-03-05T23:35:00Z,26.0630,-83.0730,20.16,1111122 
COMPS,ioos:station:USF.COMPS:C13:1,2014-03-06T00:05:00Z,26.0630,-83.0730,19.94,1111122 
COMPS,ioos:station:USF.COMPS:C13:1,2014-03-06T00:35:00Z,26.0630,-83.0730,19.74,1111122 
COMPS,ioos:station:USF.COMPS:C13:1,2014-03-06T01:05:00Z,26.0630,-83.0730,19.63,1111122 
COMPS,ioos:station:USF.COMPS:C13:1,2014-03-06T01:35:00Z,26.0630,-83.0730,19.55,1111122 
COMPS,ioos:station:USF.COMPS:C13:1,2014-03-06T02:05:00Z,26.0630,-83.0730,19.53,1111122 
COMPS,ioos:station:USF.COMPS:C13:1,2014-03-06T02:35:00Z,26.0630,-83.0730,19.4,1111122 
COMPS,ioos:station:USF.COMPS:C13:1,2014-03-06T03:05:00Z,26.0630,-83.0730,19.42,1111122 
COMPS,ioos:station:USF.COMPS:C13:1,2014-03-06T03:35:00Z,26.0630,-83.0730,19.3,1111122 
COMPS,ioos:station:USF.COMPS:C13:1,2014-03-06T04:05:00Z,26.0630,-83.0730,19.39,1111122 
COMPS,ioos:station:USF.COMPS:C13:1,2014-03-06T04:35:00Z,26.0630,-83.0730,19.4,1111122 
COMPS,ioos:station:USF.COMPS:C13:1,2014-03-06T05:05:00Z,26.0630,-83.0730,19.52,1111122 
COMPS,ioos:station:USF.COMPS:C13:1,2014-03-06T05:35:00Z,26.0630,-83.0730,19.63,1111122 
COMPS,ioos:station:USF.COMPS:C13:1,2014-03-06T06:05:00Z,26.0630,-83.0730,19.55,1111122 
COMPS,ioos:station:USF.COMPS:C13:1,2014-03-06T06:35:00Z,26.0630,-83.0730,19.59,1111122 
COMPS,ioos:station:USF.COMPS:C13:1,2014-03-06T07:05:00Z,26.0630,-83.0730,19.56,1111122 
COMPS,ioos:station:USF.COMPS:C13:1,2014-03-06T07:35:00Z,26.0630,-83.0730,19.5,1111122 
COMPS,ioos:station:USF.COMPS:C13:1,2014-03-06T08:05:00Z,26.0630,-83.0730,19.32,1111122 
COMPS,ioos:station:USF.COMPS:C13:1,2014-03-06T08:35:00Z,26.0630,-83.0730,19.33,1111122 
COMPS,ioos:station:USF.COMPS:C13:1,2014-03-06T09:05:00Z,26.0630,-83.0730,19.55,1111122 
COMPS,ioos:station:USF.COMPS:C13:1,2014-03-06T09:35:00Z,26.0630,-83.0730,19.78,1111122 
COMPS,ioos:station:USF.COMPS:C13:1,2014-03-06T10:05:00Z,26.0630,-83.0730,20.03,1111122 
COMPS,ioos:station:USF.COMPS:C13:1,2014-03-06T10:35:00Z,26.0630,-83.0730,20.17,1111122 
COMPS,ioos:station:USF.COMPS:C13:1,2014-03-06T11:05:00Z,26.0630,-83.0730,20.27,1111122 
COMPS,ioos:station:USF.COMPS:C13:1,2014-03-06T11:35:00Z,26.0630,-83.0730,20.56,1111122 
COMPS,ioos:station:USF.COMPS:C13:1,2014-03-06T12:05:00Z,26.0630,-83.0730,20.7,1111122 
COMPS,ioos:station:USF.COMPS:C13:1,2014-03-06T12:35:00Z,26.0630,-83.0730,21.0,1111122 
COMPS,ioos:station:USF.COMPS:C13:1,2014-03-06T13:05:00Z,26.0630,-83.0730,20.97,1111122 
COMPS,ioos:station:USF.COMPS:C13:1,2014-03-06T13:35:00Z,26.0630,-83.0730,21.17,1111122 
COMPS,ioos:station:USF.COMPS:C13:1,2014-03-06T14:05:00Z,26.0630,-83.0730,20.93,1111122 
COMPS,ioos:station:USF.COMPS:C13:1,2014-03-06T14:35:00Z,26.0630,-83.0730,20.81,1111122 
COMPS,ioos:station:USF.COMPS:C13:1,2014-03-06T15:05:00Z,26.0630,-83.0730,21.0,1111122 
COMPS,ioos:station:USF.COMPS:C13:1,2014-03-06T15:35:00Z,26.0630,-83.0730,21.1,1111122 
COMPS,ioos:station:USF.COMPS:C13:1,2014-03-06T16:05:00Z,26.0630,-83.0730,21.01,1111122 
COMPS,ioos:station:USF.COMPS:C13:1,2014-03-06T16:35:00Z,26.0630,-83.0730,17.22,1111122 
COMPS,ioos:station:USF.COMPS:C13:1,2014-03-06T17:05:00Z,26.0630,-83.0730,17.52,1111122 
COMPS,ioos:station:USF.COMPS:C13:1,2014-03-06T17:35:00Z,26.0630,-83.0730,17.89,1111122 
COMPS,ioos:station:USF.COMPS:C13:1,2014-03-06T18:05:00Z,26.0630,-83.0730,18.07,1111122 
COMPS,ioos:station:USF.COMPS:C13:1,2014-03-06T18:35:00Z,26.0630,-83.0730,17.98,1111122 
COMPS,ioos:station:USF.COMPS:C13:1,2014-03-06T19:05:00Z,26.0630,-83.0730,18.09,1111122 
COMPS,ioos:station:USF.COMPS:C13:1,2014-03-06T19:35:00Z,26.0630,-83.0730,18.08,1111122 
COMPS,ioos:station:USF.COMPS:C13:1,2014-03-06T20:05:00Z,26.0630,-83.0730,18.45,1111122 
COMPS,ioos:station:USF.COMPS:C13:1,2014-03-06T20:35:00Z,26.0630,-83.0730,18.79,1111122 
COMPS,ioos:station:USF.COMPS:C13:1,2014-03-06T21:05:00Z,26.0630,-83.0730,19.29,1111122 
COMPS,ioos:station:USF.COMPS:C13:1,2014-03-06T21:35:00Z,26.0630,-83.0730,20.16,1111122 
COMPS,ioos:station:USF.COMPS:C13:1,2014-03-06T22:05:00Z,26.0630,-83.0730,20.49,1111122 
COMPS,ioos:station:USF.COMPS:C13:1,2014-03-06T22:35:00Z,26.0630,-83.0730,20.64,1111122 
COMPS,ioos:station:USF.COMPS:C13:1,2014-03-06T23:05:00Z,26.0630,-83.0730,20.74,1111122 
COMPS,ioos:station:USF.COMPS:C13:1,2014-03-06T23:35:00Z,26.0630,-83.0730,20.68,1111122 
COMPS,ioos:station:USF.COMPS:C13:1,2014-03-07T00:05:00Z,26.0630,-83.0730,20.72,1111122 
COMPS,ioos:station:USF.COMPS:C13:1,2014-03-07T00:35:00Z,26.0630,-83.0730,20.78,1111122 
COMPS,ioos:station:USF.COMPS:C13:1,2014-03-07T01:05:00Z,26.0630,-83.0730,20.82,1111122 
COMPS,ioos:station:USF.COMPS:C13:1,2014-03-07T01:35:00Z,26.0630,-83.0730,20.97,1111122 
COMPS,ioos:station:USF.COMPS:C13:1,2014-03-07T02:05:00Z,26.0630,-83.0730,21.08,1111122 
COMPS,ioos:station:USF.COMPS:C13:1,2014-03-07T02:35:00Z,26.0630,-83.0730,21.07,1111122 
COMPS,ioos:station:USF.COMPS:C13:1,2014-03-07T03:05:00Z,26.0630,-83.0730,21.04,1111122 
COMPS,ioos:station:USF.COMPS:C13:1,2014-03-07T03:35:00Z,26.0630,-83.0730,21.07,1111122 
COMPS,ioos:station:USF.COMPS:C13:1,2014-03-07T04:05:00Z,26.0630,-83.0730,21.09,1111122 
COMPS,ioos:station:USF.COMPS:C13:1,2014-03-07T04:35:00Z,26.0630,-83.0730,21.27,1111122 
COMPS,ioos:station:USF.COMPS:C13:1,2014-03-07T05:05:00Z,26.0630,-83.0730,21.33,1111122 
COMPS,ioos:station:USF.COMPS:C13:1,2014-03-07T05:35:00Z,26.0630,-83.0730,21.31,1111122 
COMPS,ioos:station:USF.COMPS:C13:1,2014-03-07T06:05:00Z,26.0630,-83.0730,21.47,1111122 
COMPS,ioos:station:USF.COMPS:C13:1,2014-03-07T06:35:00Z,26.0630,-83.0730,21.48,1111122 
COMPS,ioos:station:USF.COMPS:C13:1,2014-03-07T07:05:00Z,26.0630,-83.0730,21.46,1111122 
COMPS,ioos:station:USF.COMPS:C13:1,2014-03-07T07:35:00Z,26.0630,-83.0730,21.07,1111122 
COMPS,ioos:station:USF.COMPS:C13:1,2014-03-07T08:05:00Z,26.0630,-83.0730,21.07,1111122 
COMPS,ioos:station:USF.COMPS:C13:1,2014-03-07T08:35:00Z,26.0630,-83.0730,21.08,1111122 